Regional Weather Roundup
Issued by NWS

Home | Current Version | Previous Version | Text Only | Print | Product List | Glossary On
Versions: 1 2 3 4 5 6 7 8 9 10 11 12 13 14 15 16 17 18 19 20 21 22 23 24 25 26 27 28 29 30 31 32 33 34 35 36 37 38 39 40 41 42 43 44 45 46 47 48 49 50
000
ASUS44 KLUB 301110
RWRTX
WEST TEXAS WEATHER ROUNDUP
NATIONAL WEATHER SERVICE LUBBOCK TX
600 AM CDT SUN AUG 30 2015

NOTE: "FAIR" INDICATES FEW OR NO CLOUDS BELOW 12,000 FEET WITH NO
SIGNIFICANT WEATHER AND/OR OBSTRUCTIONS TO VISIBILITY.

TXZ004-006>008-010-012-014-016-OKZ002-301200-
TEXAS PANHANDLE/OKLAHOMA PANHANDLE

CITY           SKY/WX    TMP DP  RH WIND       PRES   REMARKS
AMARILLO       CLEAR     64  56  75 NW6       30.13S
BORGER         CLEAR     61  57  87 W5        30.10S
CANADIAN       CLEAR     52  51  97 CALM      30.06S
DALHART        CLEAR     57  51  80 NW3       30.15R
DUMAS          CLEAR     58  54  85 W3        30.13S
GUYMON         CLEAR     54  50  86 CALM      30.09S
HEREFORD       CLEAR     60  57  92 CALM      30.15S
PAMPA          CLEAR     60  54  80 S5        30.11S
PERRYTON       CLEAR     54  50  84 NW5       30.10R
$$

TXZ026-029-035-045-048-301200-
SOUTHERN PANHANDLE/SOUTH PLAINS/ROLLING PLAINS

CITY           SKY/WX    TMP DP  RH WIND       PRES   REMARKS
CHILDRESS      CLEAR     65  62  90 NW6       30.03S
SEMINOLE       CLEAR     59  55  85 NW5       30.14S
LUBBOCK        PTCLDY    60  55  83 W5        30.11F
PLAINVIEW      CLEAR     60  53  77 NW6       30.11S
SNYDER         MOCLDY    68  55  63 W5        30.08S
$$

TXZ052-054-060>062-072-078-127-140-154-169-301200-
PERMIAN BASIN/CONCHO VALLEY/BIG COUNTRY/EDWARDS PLATEAU

CITY           SKY/WX    TMP DP  RH WIND       PRES   REMARKS
ABILENE        CLOUDY    68  63  84 S5        30.05S
BIG SPRING     PTCLDY    63  55  75 N5        30.11R
BRADY          CLOUDY    73  64  73 NE5       30.05R
JUNCTION       CLOUDY    76  60  57 CALM      30.05R
MIDLAND        CLEAR     63  57  81 CALM      30.09S
ODESSA         CLEAR     68  54  60 E6        30.10S
SAN ANGELO     CLOUDY    72  63  73 E5        30.04S
SONORA         CLOUDY    75  59  57 SE5       30.10S
SWEETWATER     MOCLDY    71  55  56 SW8       30.09S
WINK           CLEAR     66  58  75 E5        30.07S
$$

TXZ055-058-074-075-080-082-301200-
FAR WEST/SOUTHWEST MOUNTAINS/TRANS PECOS

CITY           SKY/WX    TMP DP  RH WIND       PRES   REMARKS
ALPINE         CLEAR     57  50  77 W5        30.21S
DRYDEN           N/A     77  54  44 VRB3      30.02S
EL PASO        PTCLDY    72  55  55 E6        30.12R
FORT STOCKTON  PTCLDY    67  55  65 SE3       30.08S
GUADALUPE PASS CLEAR     61  53  75 NE20      30.22F
MARFA          CLEAR     54  48  82 N6        30.18S
PECOS          CLEAR     67  55  65 N3        30.07S
$$

TXZ014-016-019-021>030-083-301200
TEXAS TECH WEST TEXAS MESONET/TEXAS PANHANDLE/NORTHERN SOUTH PLAINS

CITY           SKY/WX    TMP DP  RH WIND       PRES   REMARKS
ABERNATHY 5ENE   N/A     59  55  87 W5        30.12S
AMARILLO 9NNE    N/A     56  55  96 S1        30.12S
AMARILLO 7SSE    N/A     56  55  96 NW3       30.14S
AMHERST 1NE      N/A     59  57  91 W6        30.14S
BOOTLEG 11WNW    N/A     60  55  82 SW9       30.19S
CANADIAN 6E      N/A     55  51  85 SW3       30.05R
CAPROCK CYN SP   N/A     64  60  88 CALM      30.08S
CHILDRESS 2NNE   N/A     64  60  86 N7        30.02S
CLARENDON 2WSW   N/A     61  56  83 CALM      30.09R
DIMMITT 2NE      N/A     56  54  92 NW3       30.14S
FLOYDADA 2NNE    N/A     57  56  95 W6        30.10F
FRIONA 2NE       N/A     55  53  95 W5        30.17R
GOODLETT 3W      N/A     66  60  79 NW8       30.00S
HART 3N          N/A     58  56  95 SW3       30.14R
HEREFORD 2NW     N/A     57  53  85 W3        30.14F
MCLEAN 1E        N/A     60  56  84 W5        30.07S
MEMPHIS 1NE      N/A     63  58  84 NW5       30.04R
MULESHOE 2SSW    N/A     57  55  94 SW6       30.15S
OLTON 6S         N/A     60  56  88 W5        30.13S
PALO DURO SP     N/A     59  57  91 NW6       30.14R
PAMPA 2E         N/A     57  53  86 SW1       30.10S
PLAINVIEW 1S     N/A     61  58  92 W6        30.11F
SILVERTON 7ESE   N/A     61  58  89 NW3       30.10S
TULIA 2ENE       N/A     58  57  97 NW7       30.12S
TURKEY 2WSW      N/A     66  61  83 NW8       30.05F
UMBARGER 3NNE    N/A     57  56  94 W6        30.15S
$$

TXZ033>036-039>041-045>048-301200
TEXAS TECH WEST TEXAS MESONET/SOUTH PLAINS

CITY           SKY/WX    TMP DP  RH WIND       PRES   REMARKS
AIKEN 3WSW       N/A     58  57  96 W5        30.13S
ANDREWS 2NE      N/A     62  57  84 NW3       30.12S
BROWNFIELD 2S    N/A     59  52  78 W6        30.13S
DENVR CTY 7WNW   N/A     58  53  84 W5        30.15R
GAIL 2ESE        N/A     62  55  77 NW2       30.08R
LAMESA 2SE       N/A     59  55  85 NW5       30.11S
LEVELLAND 4S     N/A     55  51  86 W5        30.14R
LUBBOCK 3WNW     N/A     56  52  86 W2        30.12F
MORTON 1ENE      N/A     58  56  93 W5        30.15R
ODONNELL 1N      N/A     58  54  88 W5        30.11S
PLAINS 3N        N/A     56  52  86 W6        30.15S
RALLS 1SE        N/A     59  54  82 W5        30.12S
REESE CENTER     N/A     57  52  82 W6        30.12S
SEAGRAVES 1SW    N/A     56  53  89 NW2       30.13S
SEMINOLE 2NNE    N/A     60  55  83 W3        30.13S
SLATON 2NE       N/A     59  53  80 W6        30.11S
SNYDER 3E        N/A     65  56  72 NW6       30.07S
SUNDOWN 8SW      N/A     58  53  84 W8        30.14S
TAHOKA 3NNE      N/A     57  53  85 NW7       30.11S
WOLFFORTH 6SSW   N/A     56  53  88 W3        30.13S
$$

TXZ031-032-036>038-042>044-301200-
TEXAS TECH WEST TEXAS MESONET/ROLLING PLAINS

CITY           SKY/WX    TMP DP  RH WIND       PRES   REMARKS
ASPERMONT 3NE    N/A     66  54  66 SW5       30.03S
FLUVANNA 3WNW    N/A     65  53  65 W6        30.09R
GRAHAM 5SSW      N/A     64  53  69 W9        30.10S
GUTHRIE 10WSW    N/A     64  52  64 N3        30.04R
HASKELL 1NW      N/A     70  54  56 W6        30.01S
JAYTON 1SSE      N/A     60  55  81 W5        30.05S
KNOX CITY 3NW    N/A     64  54  68 SW5       30.02S
LK A HENRY 1NW   N/A     60  56  85 W2        30.07S
NORTHFIELD 1S    N/A     64  61  90 W3        30.04R
ODELL 4ENE       N/A     64  62  91 N3        29.99S
PADUCAH 10SW     N/A     64  54  70 SW10      30.03S
POST 1NE         N/A     67  54  62 W3        30.08S
RRING SPRGS 3N   N/A     63  56  78 NW1       30.07S
SEYMOUR 3NW      N/A     68  52  57 SW6       29.99R
SPUR 1W          N/A     64  52  65 NW5       30.05S
WEINERT 2NNE     N/A     67  54  64 W3        30.02R
WHITE RVR 6NE    N/A     66  52  61 W10       30.08S
$$

TXZ052-054-060>062-072-078-127-140-154-169-301200-
TEXAS TECH WEST TEXAS MESONET/PERMIAN BASIN/
CONCHO VALLEY/BIG COUNTRY/EDWARDS PLATEAU

CITY           SKY/WX    TMP DP  RH WIND       PRES   REMARKS
JUNCTION 1SSW    N/A     73  64  75 CALM      30.06R
MERTZON 3NNE     N/A     70  58  66 CALM      30.07S
SAN ANGELO 7NW   N/A     73  53  49 NW2       30.06R
STRLNG CT 4WSW   N/A     69  54  58 CALM      30.08R
ST LAWRNCE 5SW   N/A     66  53  63 SE6       30.08F
SWEETWATR 11SW   N/A     67  55  63 SW2       30.08S
WALL 1E          N/A     72  58  60 E3        30.06S
$$

TXZ055-058-074-075-080-082-301200-
TEXAS TECH WEST TEXAS MESONET/FAR WEST/SOUTHWEST MOUNTAINS/TRANS PECOS

CITY           SKY/WX    TMP DP  RH WIND       PRES   REMARKS
PRSMN GAP BBNP   N/A     77  55  47 N10       30.05R
$$



USA.gov is the U.S. government's official web portal to all federal, state and local government web resources and services.